Lid_Strength_Index
4 3 4 4 3 2 3 6 9 4 7 10 10 11 9 8 8 7 7 8 9 10 10 11 12 12 10 7 8 11 11 13 16 13 10 9 11 12 12 17 16 17 18 16
4 3 3 4 3 2 4 6 7 3 8 13 13 10 8 8 9 8 8 9 8 8 10 13 11 10 8 8 8 10 10 13 17 14 11 10 12 11 11 13 15 16 20 17
3 3 4 4 3 2 4 6 11 8 6 8 9 10 10 10 7 8 7 8 8 9 11 9 12 11 8 8 9 7 8 11 14 16 14 12 14 12 11 13 17 16 16 15
3 3 4 4 3 3 4 6 9 8 11 10 9 9 9 10 10 8 8 9 9 10 13 12 12 10 10 8 7 8 10 13 13 12 12 12 13 13 12 13 13 15 14 13
3 4 4 3 3 4 5 7 8 8 9 8 9 10 10 10 9 9 10 9 9 9 11 10 12 10 10 11 9 10 9 14 13 15 12 12 14 13 13 13 13 12 12 13
4 4 4 3 3 3 5 6 6 7 10 10 11 10 9 9 8 8 7 8 10 12 10 9 9 9 8 8 9 11 12 15 16 18 14 15 18 14 12 12 11 12 14 11
3 4 4 4 3 3 3 4 6 9 12 10 10 8 8 9 8 9 8 8 10 8 8 10 10 11 10 9 9 9 13 15 18 20 19 23 14 11 10 11 11 10 11 10
3 5 6 5 4 3 2 4 7 9 14 9 9 8 9 8 8 9 8 7 7 7 10 15 15 16 15 13 10 10 10 15 18 21 19 17 14 11 11 12 12 9 10 10
5 5 5 4 4 3 2 4 5 8 9 10 7 8 8 10 11 10 9 6 6 9 16 17 18 19 16 15 13 10 11 14 17 18 23 23 15 10 9 10 15 9 9 10
5 5 5 5 5 4 3 4 4 5 9 8 7 9 9 8 10 11 9 9 10 10 18 20 19 17 13 16 16 17 17 18 19 23 23 17 12 9 8 15 15 9 9 10
4 5 5 5 4 3 3 4 4 5 9 7 6 5 7 8 9 12 9 10 11 15 17 18 17 20 15 15 13 14 15 17 17 19 21 19 10 10 12 11 10 8 9 9
5 5 5 6 5 4 4 5 2 3 5 6 5 5 5 5 7 8 9 9 10 11 14 16 14 18 14 16 17 12 16 14 15 14 14 11 10 10 9 8 9 9 9 9
5 5 6 6 5 3 3 4 4 5 8 7 7 7 4 4 4 4 9 10 7 8 9 11 14 17 15 16 15 15 11 10 14 13 11 10 9 8 8 8 9 8 8 7
4 5 5 5 4 3 3 4 4 5 8 12 9 5 6 4 4 4 5 6 7 8 10 13 14 17 12 16 14 14 11 10 11 13 10 9 8 8 8 8 7 7 7 8
3 4 5 4 4 3 3 4 4 4 6 10 12 6 6 6 4 5 5 6 8 10 12 13 13 14 13 13 13 13 9 10 13 13 9 9 9 8 8 8 8 7 9 10
3 4 5 5 4 4 3 6 4 3 5 9 12 7 6 5 5 5 6 6 7 9 11 13 11 9 11 13 13 9 7 7 8 9 8 8 8 8 7 7 6 8 10 11
4 4 4 4 5 4 5 7 5 5 5 9 11 12 8 7 7 8 7 8 8 8 10 13 11 12 9 13 14 9 8 7 7 6 7 9 8 8 6 7 9 10 11 11
4 4 5 4 4 4 5 5 5 5 7 10 13 14 12 8 12 11 8 12 10 10 10 11 12 11 12 12 10 8 7 7 7 7 7 7 7 9 10 10 11 12 12 12
4 4 4 4 5 7 6 5 5 5 7 12 14 14 14 9 10 11 10 9 12 10 12 11 11 13 13 10 9 8 8 8 7 7 7 8 10 11 11 11 11 12 13 12
4 4 7 10 7 5 5 6 9 10 11 10 13 11 12 9 12 12 13 12 13 15 12 9 13 12 10 9 9 8 8 8 8 10 12 11 12 12 11 11 11 12 12 13
7 9 10 7 5 7 9 12 13 10 11 11 11 11 10 9 11 13 12 13 13 14 15 13 15 14 13 12 12 11 10 10 10 10 10 10 11 12 11 12 12 12 13 13
6 7 6 8 10 11 11 12 11 12 12 12 11 11 10 11 11 12 12 13 13 16 12 13 15 14 12 12 12 11 10 10 10 9 10 10 10 10 12 13 13 12 12 14
7 9 11 10 12 12 12 13 13 13 12 11 13 13 13 12 11 13 13 13 14 13 14 15 14 13 11 11 11 10 10 10 11 10 10 11 12 12 12 12 12 13 12 12
11 11 13 12 14 14 14 13 13 13 13 13 13 13 13 13 13 13 14 14 14 15 18 20 13 11 11 12 13 13 14 15 13 13 12 12 13 12 14 14 14 15 13 11
12 12 15 15 13 13 13 13 13 13 12 13 13 13 12 13 14 14 15 17 19 18 18 14 13 12 12 12 11 13 13 14 13 12 12 14 14 13 12 12 12 11 14 13
12 13 14 14 14 14 13 13 13 12 12 12 12 13 14 15 14 16 16 17 20 19 14 12 12 12 11 10 10 12 11 12 11 11 11 11 13 13 10 11 12 13 13 13
13 13 12 13 14 13 13 13 13 11 12 14 14 19 17 14 16 16 14 16 14 12 11 10 10 10 10 10 11 11 11 10 10 10 10 10 11 13 12 11 8 8 8 10